SM0PQB-13 Weather Reports


time (UTC)temp
C
wind
direction
speed
KPH
gust
KPH
rain 1hr
cm
rain 24hr
cm
rain mn
cm
humidity
%
barometer
mb
20260502231911 25 0.0 0.0 0.00 0.00 0.00 35 1005.0
20260502230912 25 0.0 0.0 0.00 0.00 0.00 35 1005.0
20260502225912 25 0.0 0.0 0.00 0.00 0.00 35 1005.1
20260502224912 25 0.0 0.0 0.00 0.00 0.00 35 1005.1
20260502223911 25 0.0 0.0 0.00 0.00 0.00 35 1005.1
20260502222912 25 0.0 0.0 0.00 0.00 0.00 35 1004.4
20260502221912 25 0.0 0.0 0.00 0.00 0.00 35 1005.2
20260502220911 25 0.0 0.0 0.00 0.00 0.00 35 1005.2
20260502215912 25 0.0 0.0 0.00 0.00 0.00 36 1005.2
20260502214912 25 0.0 0.0 0.00 0.00 0.00 35 1005.3
20260502213912 25 0.0 0.0 0.00 0.00 0.00 35 1005.4
20260502212912 25 0.0 0.0 0.00 0.00 0.00 35 1005.5
20260502211912 25 0.0 0.0 0.00 0.00 0.00 36 1005.5
20260502210912 25 0.0 0.0 0.00 0.00 0.00 36 1005.5
20260502205912 25 0.0 0.0 0.00 0.00 0.00 36 1005.5
20260502204913 25 0.0 0.0 0.00 0.00 0.00 36 1005.6
20260502203912 25 0.0 0.0 0.00 0.00 0.00 36 1005.7
20260502202913 25 0.0 0.0 0.00 0.00 0.00 36 1005.6
20260502201912 25 0.0 0.0 0.00 0.00 0.00 36 1005.7
20260502200912 25 0.0 0.0 0.00 0.00 0.00 36 1005.0
20260502195912 25 0.0 0.0 0.00 0.00 0.00 36 1005.1
20260502194912 25 0.0 0.0 0.00 0.00 0.00 34 1005.6
20260502193912 25 0.0 0.0 0.00 0.00 0.00 32 1005.5
20260502192912 25 0.0 0.0 0.00 0.00 0.00 31 1005.4
20260502191912 25 0.0 0.0 0.00 0.00 0.00 30 1005.4
20260502190912 26 0.0 0.0 0.00 0.00 0.00 30 1005.3
20260502185912 26 0.0 0.0 0.00 0.00 0.00 30 1005.2
20260502184912 26 0.0 0.0 0.00 0.00 0.00 30 1005.1
20260502183912 26 0.0 0.0 0.00 0.00 0.00 30 1005.1
20260502182912 26 0.0 0.0 0.00 0.00 0.00 30 1005.1
20260502181912 26 0.0 0.0 0.00 0.00 0.00 30 1004.9
20260502180914 26 0.0 0.0 0.00 0.00 0.00 30 1004.9
20260502163912 26 0.0 0.0 0.00 0.00 0.00 31 1005.1
20260502162911 26 0.0 0.0 0.00 0.00 0.00 31 1005.1
20260502161912 26 0.0 0.0 0.00 0.00 0.00 31 1005.3
20260502160912 26 0.0 0.0 0.00 0.00 0.00 31 1005.4
20260502151913 27 0.0 0.0 0.00 0.00 0.00 30 1006.1
20260502150912 26 0.0 0.0 0.00 0.00 0.00 31 1005.3
20260502122912 35 0.0 0.0 0.00 0.00 0.00 20 1008.1
20260502121912 35 0.0 0.0 0.00 0.00 0.00 21 1008.3
20260502120912 35 0.0 0.0 0.00 0.00 0.00 20 1008.5
20260502115912 35 0.0 0.0 0.00 0.00 0.00 20 1008.6
20260502114912 35 0.0 0.0 0.00 0.00 0.00 21 1008.8
20260502113912 33 0.0 0.0 0.00 0.00 0.00 23 1008.9
20260502112911 32 0.0 0.0 0.00 0.00 0.00 23 1009.1
20260502111912 31 0.0 0.0 0.00 0.00 0.00 25 1009.2
20260502110912 29 0.0 0.0 0.00 0.00 0.00 26 1008.4
20260502105912 30 0.0 0.0 0.00 0.00 0.00 27 1009.5
20260502104912 28 0.0 0.0 0.00 0.00 0.00 30 1009.6
20260502103912 27 0.0 0.0 0.00 0.00 0.00 31 1009.8
20260502102912 27 0.0 0.0 0.00 0.00 0.00 30 1009.8
20260502101912 26 0.0 0.0 0.00 0.00 0.00 30 1009.9
20260502100911 26 0.0 0.0 0.00 0.00 0.00 31 1010.0
20260502090912 24 0.0 0.0 0.00 0.00 0.00 32 1010.7
20260502070912 23 0.0 0.0 0.00 0.00 0.00 34 1011.7
20260502065912 23 0.0 0.0 0.00 0.00 0.00 34 1011.7
20260502064912 23 0.0 0.0 0.00 0.00 0.00 34 1011.8
20260502063912 23 0.0 0.0 0.00 0.00 0.00 35 1011.8
20260502062911 23 0.0 0.0 0.00 0.00 0.00 35 1011.9
20260502061913 23 0.0 0.0 0.00 0.00 0.00 35 1012.0
20260502060912 23 0.0 0.0 0.00 0.00 0.00 36 1012.0
20260502055912 23 0.0 0.0 0.00 0.00 0.00 36 1012.0
20260502054912 23 0.0 0.0 0.00 0.00 0.00 36 1012.2
20260502053912 22 0.0 0.0 0.00 0.00 0.00 36 1012.2
20260502052912 22 0.0 0.0 0.00 0.00 0.00 37 1012.3
20260502051912 22 0.0 0.0 0.00 0.00 0.00 37 1012.3
20260502050911 22 0.0 0.0 0.00 0.00 0.00 37 1012.2
20260502045911 22 0.0 0.0 0.00 0.00 0.00 37 1012.1
20260502044912 22 0.0 0.0 0.00 0.00 0.00 37 1012.3
20260502043912 22 0.0 0.0 0.00 0.00 0.00 37 1012.4
20260502042912 22 0.0 0.0 0.00 0.00 0.00 37 1012.4
20260502041913 22 0.0 0.0 0.00 0.00 0.00 37 1012.4
20260502040913 22 0.0 0.0 0.00 0.00 0.00 36 1011.9
20260502035912 22 0.0 0.0 0.00 0.00 0.00 36 1012.4
20260502034912 22 0.0 0.0 0.00 0.00 0.00 37 1012.5
20260502033912 22 0.0 0.0 0.00 0.00 0.00 36 1012.5
20260502032914 22 0.0 0.0 0.00 0.00 0.00 37 1012.7
20260502031912 22 0.0 0.0 0.00 0.00 0.00 37 1012.7
20260502030912 22 0.0 0.0 0.00 0.00 0.00 37 1012.9
20260502025912 22 0.0 0.0 0.00 0.00 0.00 37 1013.0
20260502024913 22 0.0 0.0 0.00 0.00 0.00 37 1013.1
20260502023912 22 0.0 0.0 0.00 0.00 0.00 37 1013.2
20260502022916 22 0.0 0.0 0.00 0.00 0.00 37 1013.2
20260502021913 23 0.0 0.0 0.00 0.00 0.00 37 1013.2
20260502020912 23 0.0 0.0 0.00 0.00 0.00 37 1013.2
20260502015912 22 0.0 0.0 0.00 0.00 0.00 37 1012.7
20260502014912 23 0.0 0.0 0.00 0.00 0.00 37 1013.4
20260502013912 22 0.0 0.0 0.00 0.00 0.00 37 1012.9
20260502012912 23 0.0 0.0 0.00 0.00 0.00 37 1013.5
20260502011916 23 0.0 0.0 0.00 0.00 0.00 38 1013.7
20260502010917 23 0.0 0.0 0.00 0.00 0.00 38 1013.6
20260502005911 23 0.0 0.0 0.00 0.00 0.00 37 1013.8
20260502004912 23 0.0 0.0 0.00 0.00 0.00 38 1013.7
20260502003912 23 0.0 0.0 0.00 0.00 0.00 38 1013.9
20260502002912 23 0.0 0.0 0.00 0.00 0.00 38 1013.9
20260502001912 23 0.0 0.0 0.00 0.00 0.00 38 1013.3
20260502000912 23 0.0 0.0 0.00 0.00 0.00 38 1014.0
20260501235912 23 0.0 0.0 0.00 0.00 0.00 38 1014.1
20260501234912 23 0.0 0.0 0.00 0.00 0.00 38 1014.2
20260501233912 23 0.0 0.0 0.00 0.00 0.00 38 1014.3
20260501232912 23 0.0 0.0 0.00 0.00 0.00 38 1014.3